Starlink 35918

operational
NORAD ID: 66643 Int'l Des: 2025-271 Owner: SPXS Country: US Constellation: starlink
LEOCIRCULAR

About Starlink 35918

Description loading...

Live Position

Loading 3D Globe...

Upcoming Passes

Altitude History

Altitude vs Time

uPlot chart will show altitude changes over time

Two-Line Element Set

1 66643U 25271AC 25340.91668981 -.01397232 00000-0 -10557-1 0 9992
2 66643 53.1576 215.5356 0001236 79.0845 41.4228 15.74597337 3304
Epoch: Dec 6, 2025 • Age: 15 hours

Current Status

Altitude 356.4 km
Velocity 7.70 km/s
Sub-Earth Point 51.00°N, 6.98°E
Launch Date Nov 23, 2025
Age 14 days
Type internet

Technical Details

Classification Payload
Mass 575.00 kg
Dry Mass 530.00 kg
Total Mass 575.00 kg
Length 0.30 m
Diameter 4.10 m
Span 29.00 m
Shape Box + pan
Manufacturer SPXS
Bus Type Starlink V2MO
Phase Status In Orbit
Owner/State SPXS/US

Large Constellations

Loading constellations...